This is the latest recevied weather packets stored in our database for station/object WC4PEM-14. If no packets are shown the sender has not sent any weather packets the latest 10 day(s).
| Time | Temp. | Humidity | Pressure | Rain* | Wind** | Luminosity | Snow |
|---|---|---|---|---|---|---|---|
| 1777470804 | 26.11° C | 77% | 1017.6 hPa | 0 mm | - | - | - |
| 1777470504 | 25.56° C | 78% | 1017.6 hPa | 0 mm | - | - | - |
| 1777470334 | 25° C | 78% | 1017.5 hPa | 0 mm | - | - | - |
| 1777470204 | 25° C | 78% | 1017.5 hPa | 0 mm | - | - | - |
| 1777470128 | 25° C | 78% | 1017.2 hPa | 0 mm | - | - | - |
| 1777469904 | 25° C | 78% | 1017.2 hPa | 0 mm | - | - | - |
| 1777469791 | 25° C | 78% | 1017 hPa | 0 mm | - | - | - |
| 1777469604 | 25° C | 78% | 1017 hPa | 0 mm | - | - | - |
| 1777469304 | 25° C | 79% | 1016.9 hPa | 0 mm | - | - | - |
| 1777469180 | 24.44° C | 81% | 1016.9 hPa | 0 mm | - | - | - |
| 1777469004 | 24.44° C | 81% | 1016.9 hPa | 0 mm | - | - | - |
| 1777468704 | 24.44° C | 82% | 1016.8 hPa | 0 mm | - | - | - |
| 1777468528 | 23.89° C | 83% | 1016.9 hPa | 0 mm | - | - | - |
| 1777468478 | 23.33° C | 85% | 1017.1 hPa | 0 mm | - | - | - |
| 1777468404 | 23.89° C | 83% | 1016.9 hPa | 0 mm | - | - | - |
| 1777468291 | 23.89° C | 84% | 1017 hPa | 0 mm | - | - | - |
| 1777468104 | 23.89° C | 84% | 1017 hPa | 0 mm | - | - | - |
| 1777467979 | 23.33° C | 85% | 1017.1 hPa | 0 mm | - | - | - |
| 1777467804 | 23.33° C | 85% | 1017.1 hPa | 0 mm | - | - | - |
| 1777467673 | 23.33° C | 86% | 1017.1 hPa | 0 mm | - | - | - |
| 1777467504 | 23.33° C | 86% | 1017.1 hPa | 0 mm | - | - | - |
| 1777467438 | 22.78° C | 87% | 1017 hPa | 0 mm | - | - | - |
| 1777467426 | 22.78° C | 86% | 1017.1 hPa | 0 mm | - | - | - |
| 1777467204 | 22.78° C | 86% | 1017.1 hPa | 0 mm | - | - | - |
| 1777467109 | 22.78° C | 87% | 1017 hPa | 0 mm | - | - | - |
* Rain latest hour (hover to see other rain measurements)
** Current wind speed in m/s (hover to see current wind gust speed)